Flag for Germany Weather past 2 weeks in Leonberg, Baden-Württemberg, Germany

Now
54 °F

Clear.


Feels Like: 54 °F
Forecast: 41 / 69 °F
Wind: 2 mph from West

Location: Stuttgart-Echterdingen

Current Time: Aug 22, 2014 at 12:14:20 AM

Latest Report: Aug 21, 2014 at 11:50 PM


Visibility: 10 mi

Pressure: 30.04 "Hg

Humidity: 77%

Dew point: 46 °F

Location of LeonbergLocation

Historic Weather in Leonberg — Graph

°F

Leonberg temperature yesterday

Maximum temperature yesterday: 66 °F (at 3:20 PM)
Minimum temperature yesterday: 48 °F (at 6:50 AM)
Average temperature yesterday: 58 °F

Past Weeks' High & Low Weather Summary

 TemperatureHumidityPressure
High82 °F (Aug 10, 5:20 PM)100% (Aug 7, 3:20 AM)30.18 "Hg (Aug 7, 3:20 AM)
Low48 °F (Aug 21, 6:50 AM)40% (Aug 19, 5:50 PM)29.68 "Hg (Aug 13, 1:20 PM)
Average62 °F73%29.96 "Hg
* Reported Aug 6 11:20 PM — Aug 21 11:20 PM, Leonberg, Weather by CustomWeather, © 2014

Note: Actual official high and low records may vary slightly from our data, if they occured in-between our weather recording intervals... More about our weather records

Advertising

Leonberg weather history for previous 24 hours

 ConditionsComfort  
Time TempWeatherWind HumidityBarometerVisibility
11:20 PM
Aug 21
55 °FClear.No wind72%30.04 "Hg10 mi
10:50 PM55 °FClear.1 mph72%30.04 "Hg10 mi
10:20 PM57 °FClear.No wind67%30.04 "Hg10 mi
9:50 PM59 °FClear.2 mph63%30.04 "Hg10 mi
9:20 PM59 °FSunny.5 mph63%30.04 "Hg10 mi
8:50 PM61 °FSunny.2 mph59%30.04 "Hg10 mi
8:20 PM61 °FSunny.5 mph59%30.04 "Hg10 mi
7:50 PM63 °FSunny.5 mph56%30.01 "Hg10 mi
7:20 PM63 °FSunny.6 mph52%30.01 "Hg10 mi
6:50 PM64 °FSunny.6 mph49%30.01 "Hg10 mi
6:20 PM63 °FSunny.6 mph56%30.01 "Hg10 mi
5:50 PM64 °FSunny.6 mph52%30.01 "Hg10 mi
5:20 PM64 °FSunny.6 mph52%30.01 "Hg10 mi
4:50 PM64 °FSunny.9 mph52%30.01 "Hg10 mi
4:20 PM64 °FSunny.7 mph52%30.04 "Hg10 mi
3:50 PM64 °FPassing clouds.6 mph43%30.04 "HgN/A
3:20 PM66 °FSunny.2 mph40%30.04 "Hg10 mi
2:50 PM64 °FSunny.7 mph52%30.04 "Hg10 mi
2:20 PM64 °FPassing clouds.7 mph49%30.07 "HgN/A
1:50 PM64 °FSunny.5 mph49%30.07 "Hg10 mi
1:20 PM63 °FSunny.8 mph52%30.07 "Hg10 mi
12:50 PM63 °FSunny.5 mph49%30.07 "Hg10 mi
12:20 PM63 °FScattered clouds.3 mph49%30.07 "HgN/A
11:50 AM63 °FScattered clouds.3 mph45%30.07 "HgN/A
11:20 AM61 °FScattered clouds.7 mph55%30.07 "HgN/A
10:50 AM61 °FPassing clouds.6 mph55%30.07 "HgN/A
10:20 AM61 °FPassing clouds.3 mph63%30.07 "HgN/A
9:50 AM59 °FPassing clouds.3 mph72%30.07 "HgN/A
9:20 AM57 °FSunny.3 mph72%30.07 "Hg10 mi
8:50 AM55 °FSunny.3 mph77%30.07 "Hg10 mi
8:20 AM54 °FSunny.1 mph82%30.07 "Hg10 mi
7:50 AM52 °FSunny.1 mph88%30.07 "Hg10 mi
7:20 AM50 °FClear.2 mph88%30.07 "Hg10 mi
6:50 AM48 °FClear.1 mph87%30.07 "Hg10 mi
6:20 AM50 °FClear.3 mph88%30.07 "Hg10 mi
5:50 AM50 °FPassing clouds.6 mph88%30.07 "HgN/A
5:20 AM50 °FPassing clouds.5 mph88%30.07 "HgN/A
4:50 AM52 °FPassing clouds.2 mph88%30.07 "HgN/A
4:20 AM52 °FPassing clouds.5 mph88%30.07 "HgN/A
3:50 AM54 °FPartly cloudy.3 mph82%30.07 "HgN/A
3:20 AM54 °FPartly cloudy.2 mph88%30.07 "HgN/A
2:50 AM54 °FPartly cloudy.3 mph88%30.07 "HgN/A
2:20 AM54 °FLight rain. Clear.2 mph82%30.04 "HgN/A
1:50 AM55 °FLight rain. Clear.7 mph82%30.07 "HgN/A
1:20 AM55 °FLight rain. Clear.5 mph77%30.04 "HgN/A
12:50 AM55 °FClear.6 mph77%30.04 "Hg10 mi
12:20 AM55 °FLight rain. Clear.3 mph77%30.04 "HgN/A
Weather by CustomWeather, © 2014

See weather overviewHow to use our weather pages